Time,TemperatureF,DewpointF,PressureIn,WindDirection,WindDirectionDegrees,WindSpeedMPH,WindSpeedGustMPH,Humidity,HourlyPrecipIn,Conditions,Clouds,dailyrainin,SoftwareType,DateUTC
2013-02-28 00:02:00,32.0,30.0,29.78,ENE,70,0.0,1.0,93,0.00,,,0.50,,2013-02-28 05:02:00,
2013-02-28 00:11:00,32.0,30.0,29.78,ENE,70,0.0,1.0,93,0.00,,,0.50,,2013-02-28 05:11:00,
2013-02-28 00:22:00,32.0,30.0,29.78,West,261,0.0,2.0,93,0.00,,,0.50,,2013-02-28 05:22:00,
2013-02-28 00:32:00,32.0,30.0,29.77,West,267,0.0,1.0,94,0.00,,,0.50,,2013-02-28 05:32:00,
2013-02-28 00:42:00,32.0,30.0,29.77,West,267,0.0,1.0,94,0.00,,,0.50,,2013-02-28 05:42:00,
2013-02-28 00:52:00,32.0,30.0,29.77,NW,314,0.0,2.0,94,0.00,,,0.50,,2013-02-28 05:52:00,
2013-02-28 01:01:00,32.0,30.0,29.77,NW,314,0.0,2.0,94,0.00,,,0.50,,2013-02-28 06:01:00,
2013-02-28 01:11:00,32.0,30.0,29.77,NW,314,0.0,2.0,94,0.00,,,0.50,,2013-02-28 06:11:00,
2013-02-28 01:22:00,31.0,30.0,29.77,WSW,258,1.0,2.0,95,0.00,,,0.50,,2013-02-28 06:22:00,
2013-02-28 01:32:00,31.0,30.0,29.77,WSW,256,0.0,0.0,95,0.00,,,0.50,,2013-02-28 06:32:00,
2013-02-28 01:42:00,31.0,30.0,29.77,WSW,256,0.0,0.0,95,0.00,,,0.50,,2013-02-28 06:42:00,
2013-02-28 01:52:00,31.0,30.0,29.77,East,84,0.0,0.0,95,0.00,,,0.50,,2013-02-28 06:52:00,
2013-02-28 02:01:00,31.0,30.0,29.76,East,84,0.0,0.0,95,0.00,,,0.50,,2013-02-28 07:01:00,
2013-02-28 02:11:00,31.0,30.0,29.76,East,84,0.0,0.0,95,0.00,,,0.50,,2013-02-28 07:11:00,
2013-02-28 02:22:00,31.0,30.0,29.77,East,84,0.0,0.0,95,0.00,,,0.50,,2013-02-28 07:22:00,
2013-02-28 02:32:00,31.0,30.0,29.76,East,84,0.0,0.0,95,0.00,,,0.50,,2013-02-28 07:32:00,
2013-02-28 02:42:00,31.0,30.0,29.76,East,84,0.0,0.0,95,0.00,,,0.50,,2013-02-28 07:42:00,
2013-02-28 02:52:00,31.0,30.0,29.75,East,83,0.0,0.0,95,0.00,,,0.50,,2013-02-28 07:52:00,
2013-02-28 03:01:00,31.0,30.0,29.75,East,84,0.0,0.0,95,0.00,,,0.50,,2013-02-28 08:01:00,
2013-02-28 03:11:00,31.0,30.0,29.75,East,84,0.0,0.0,95,0.00,,,0.50,,2013-02-28 08:11:00,
2013-02-28 03:22:00,31.0,30.0,29.74,East,84,0.0,0.0,95,0.00,,,0.50,,2013-02-28 08:22:00,
2013-02-28 03:32:00,31.0,30.0,29.75,West,269,0.0,0.0,96,0.00,,,0.50,,2013-02-28 08:32:00,
2013-02-28 03:42:00,31.0,30.0,29.75,West,269,0.0,0.0,96,0.00,,,0.50,,2013-02-28 08:42:00,
2013-02-28 03:53:00,31.0,30.0,29.75,West,269,0.0,0.0,96,0.00,,,0.50,,2013-02-28 08:53:00,
2013-02-28 04:03:00,31.0,30.0,29.75,West,269,0.0,0.0,96,0.00,,,0.50,,2013-02-28 09:03:00,
2013-02-28 04:12:00,31.0,30.0,29.75,West,269,0.0,0.0,96,0.00,,,0.50,,2013-02-28 09:12:00,
2013-02-28 04:22:00,31.0,30.0,29.75,West,268,0.0,0.0,96,0.00,,,0.50,,2013-02-28 09:22:00,
2013-02-28 04:32:00,31.0,30.0,29.75,West,268,0.0,0.0,96,0.00,,,0.50,,2013-02-28 09:32:00,
2013-02-28 04:42:00,31.0,30.0,29.75,West,268,0.0,0.0,96,0.00,,,0.50,,2013-02-28 09:42:00,
2013-02-28 04:52:00,31.0,30.0,29.75,West,269,0.0,0.0,96,0.00,,,0.50,,2013-02-28 09:52:00,
2013-02-28 05:02:00,31.0,30.0,29.76,West,269,0.0,0.0,96,0.00,,,0.50,,2013-02-28 10:02:00,
2013-02-28 05:11:00,31.0,30.0,29.76,West,269,0.0,0.0,96,0.00,,,0.50,,2013-02-28 10:11:00,
2013-02-28 05:22:00,31.0,30.0,29.77,West,269,0.0,0.0,96,0.00,,,0.50,,2013-02-28 10:22:00,
2013-02-28 05:32:00,31.0,30.0,29.77,West,269,0.0,0.0,96,0.00,,,0.50,,2013-02-28 10:32:00,
2013-02-28 05:42:00,31.0,30.0,29.77,West,269,0.0,0.0,96,0.00,,,0.50,,2013-02-28 10:42:00,
2013-02-28 05:52:00,31.0,30.0,29.78,West,269,0.0,0.0,96,0.00,,,0.50,,2013-02-28 10:52:00,
2013-02-28 06:02:00,31.0,30.0,29.78,West,269,0.0,0.0,96,0.00,,,0.50,,2013-02-28 11:02:00,
2013-02-28 06:11:00,31.0,30.0,29.78,West,269,0.0,0.0,96,0.00,,,0.50,,2013-02-28 11:11:00,
2013-02-28 06:22:00,31.0,30.0,29.78,West,269,0.0,0.0,96,0.00,,,0.50,,2013-02-28 11:22:00,
2013-02-28 06:32:00,31.0,30.0,29.78,West,269,0.0,0.0,96,0.00,,,0.50,,2013-02-28 11:32:00,
2013-02-28 06:42:00,31.0,30.0,29.78,West,269,0.0,0.0,96,0.00,,,0.50,,2013-02-28 11:42:00,
2013-02-28 06:52:00,31.0,30.0,29.78,West,269,0.0,0.0,96,0.00,,,0.50,,2013-02-28 11:52:00,
2013-02-28 07:02:00,31.0,30.0,29.78,West,269,0.0,0.0,96,0.00,,,0.50,,2013-02-28 12:02:00,
2013-02-28 07:12:00,31.0,30.0,29.78,West,269,0.0,0.0,96,0.00,,,0.50,,2013-02-28 12:12:00,
2013-02-28 07:22:00,31.0,30.0,29.78,West,269,0.0,0.0,96,0.00,,,0.50,,2013-02-28 12:22:00,
2013-02-28 07:32:00,31.0,30.0,29.78,West,269,0.0,0.0,96,0.00,,,0.50,,2013-02-28 12:32:00,
2013-02-28 07:42:00,31.0,30.0,29.78,West,269,0.0,0.0,96,0.00,,,0.50,,2013-02-28 12:42:00,
2013-02-28 07:52:00,31.0,30.0,29.78,West,268,0.0,0.0,96,0.00,,,0.50,,2013-02-28 12:52:00,
2013-02-28 08:02:00,32.0,31.0,29.77,West,269,0.0,0.0,96,0.00,,,0.50,,2013-02-28 13:02:00,
2013-02-28 08:12:00,32.0,31.0,29.76,West,267,0.0,0.0,96,0.00,,,0.50,,2013-02-28 13:12:00,
2013-02-28 08:22:00,32.0,31.0,29.76,West,267,0.0,0.0,96,0.00,,,0.50,,2013-02-28 13:22:00,
2013-02-28 08:32:00,32.0,31.0,29.77,SE,124,0.0,0.0,96,0.00,,,0.50,,2013-02-28 13:32:00,
2013-02-28 08:42:00,32.0,31.0,29.77,SE,124,0.0,0.0,96,0.00,,,0.50,,2013-02-28 13:42:00,
2013-02-28 08:52:00,32.0,31.0,29.77,SE,129,0.0,0.0,95,0.00,,,0.50,,2013-02-28 13:52:00,
2013-02-28 09:02:00,32.0,31.0,29.77,SSW,211,0.0,0.0,95,0.00,,,0.50,,2013-02-28 14:02:00,
2013-02-28 09:11:00,32.0,30.0,29.77,ESE,105,0.0,2.0,94,0.00,,,0.50,,2013-02-28 14:11:00,
2013-02-28 09:22:00,32.0,30.0,29.77,ESE,105,0.0,2.0,94,0.00,,,0.50,,2013-02-28 14:22:00,
2013-02-28 09:32:00,33.0,31.0,29.78,WNW,288,0.0,1.0,93,0.00,,,0.50,,2013-02-28 14:32:00,
2013-02-28 09:42:00,33.0,31.0,29.78,WNW,288,0.0,1.0,93,0.00,,,0.50,,2013-02-28 14:42:00,
2013-02-28 09:52:00,33.0,31.0,29.78,West,276,0.0,1.0,93,0.00,,,0.50,,2013-02-28 14:52:00,
2013-02-28 10:02:00,34.0,32.0,29.78,West,276,0.0,1.0,92,0.00,,,0.50,,2013-02-28 15:02:00,
2013-02-28 10:11:00,34.0,32.0,29.78,West,276,0.0,1.0,92,0.00,,,0.50,,2013-02-28 15:11:00,
2013-02-28 10:22:00,34.0,32.0,29.78,West,276,0.0,1.0,92,0.00,,,0.50,,2013-02-28 15:22:00,
2013-02-28 10:32:00,34.0,32.0,29.77,SSE,150,0.0,1.0,93,0.00,,,0.50,,2013-02-28 15:32:00,
2013-02-28 10:42:00,34.0,32.0,29.77,SSE,150,0.0,1.0,93,0.00,,,0.50,,2013-02-28 15:42:00,
2013-02-28 10:52:00,34.0,32.0,29.77,SSE,150,0.0,0.0,93,0.00,,,0.50,,2013-02-28 15:52:00,
2013-02-28 11:02:00,34.0,32.0,29.78,SSE,150,0.0,0.0,93,0.00,,,0.50,,2013-02-28 16:02:00,
2013-02-28 11:12:00,34.0,32.0,29.78,SSE,150,0.0,0.0,93,0.00,,,0.50,,2013-02-28 16:12:00,
2013-02-28 11:22:00,34.0,32.0,29.77,East,80,0.0,1.0,93,0.01,,,0.51,,2013-02-28 16:22:00,
2013-02-28 11:32:00,34.0,32.0,29.77,East,80,0.0,0.0,93,0.01,,,0.51,,2013-02-28 16:32:00,
2013-02-28 11:42:00,34.0,32.0,29.77,East,80,0.0,0.0,93,0.01,,,0.51,,2013-02-28 16:42:00,
2013-02-28 11:53:00,34.0,32.0,29.76,East,80,0.0,1.0,93,0.02,,,0.52,,2013-02-28 16:53:00,
2013-02-28 12:02:00,35.0,33.0,29.76,East,80,0.0,1.0,92,0.03,,,0.53,,2013-02-28 17:02:00,
2013-02-28 12:12:00,35.0,33.0,29.75,East,80,0.0,0.0,92,0.03,,,0.44,,2013-02-28 17:12:00,
2013-02-28 12:22:00,35.0,33.0,29.75,East,80,0.0,0.0,92,0.03,,,0.44,,2013-02-28 17:22:00,
2013-02-28 12:32:00,36.0,34.0,29.75,East,81,0.0,1.0,92,0.04,,,0.45,,2013-02-28 17:32:00,
2013-02-28 12:42:00,36.0,34.0,29.75,East,81,0.0,1.0,92,0.04,,,0.45,,2013-02-28 17:42:00,
2013-02-28 12:53:00,37.0,34.0,29.74,West,260,0.0,0.0,89,0.04,,,0.46,,2013-02-28 17:53:00,
2013-02-28 13:02:00,37.0,34.0,29.73,West,266,0.0,3.0,88,0.04,,,0.47,,2013-02-28 18:02:00,
2013-02-28 13:12:00,37.0,34.0,29.73,West,266,0.0,3.0,88,0.04,,,0.47,,2013-02-28 18:12:00,
2013-02-28 13:22:00,37.0,34.0,29.73,West,267,1.0,2.0,88,0.05,,,0.36,,2013-02-28 18:22:00,
2013-02-28 13:32:00,38.0,34.0,29.73,WSW,237,0.0,3.0,87,0.06,,,0.38,,2013-02-28 18:32:00,
2013-02-28 13:42:00,38.0,34.0,29.73,WSW,237,0.0,3.0,87,0.06,,,0.38,,2013-02-28 18:42:00,
2013-02-28 13:52:00,39.0,35.0,29.72,WSW,256,1.0,3.0,86,0.06,,,0.39,,2013-02-28 18:52:00,
2013-02-28 14:02:00,39.0,35.0,29.72,WSW,253,0.0,2.0,85,0.07,,,0.41,,2013-02-28 19:02:00,
2013-02-28 14:12:00,39.0,35.0,29.72,WSW,253,0.0,2.0,85,0.07,,,0.41,,2013-02-28 19:12:00,
2013-02-28 14:22:00,39.0,35.0,29.72,West,262,1.0,3.0,85,0.07,,,0.32,,2013-02-28 19:22:00,
2013-02-28 14:32:00,40.0,36.0,29.71,SW,228,1.0,2.0,84,0.06,,,0.33,,2013-02-28 19:32:00,
2013-02-28 14:42:00,40.0,36.0,29.71,SW,228,1.0,2.0,84,0.06,,,0.33,,2013-02-28 19:42:00,
2013-02-28 14:52:00,40.0,36.0,29.71,SSE,148,0.0,1.0,84,0.04,,,0.33,,2013-02-28 19:52:00,
2013-02-28 15:01:00,41.0,37.0,29.70,East,79,0.0,2.0,85,0.04,,,0.34,,2013-02-28 20:01:00,
2013-02-28 15:12:00,41.0,37.0,29.70,East,79,0.0,2.0,85,0.04,,,0.34,,2013-02-28 20:12:00,
2013-02-28 15:22:00,41.0,36.0,29.70,North,10,0.0,2.0,83,0.03,,,0.28,,2013-02-28 20:22:00,
2013-02-28 15:32:00,40.0,36.0,29.70,NE,43,0.0,2.0,84,0.03,,,0.28,,2013-02-28 20:32:00,
2013-02-28 15:42:00,40.0,36.0,29.70,NE,43,0.0,2.0,84,0.03,,,0.28,,2013-02-28 20:42:00,
2013-02-28 15:52:00,41.0,36.0,29.70,WSW,253,0.0,1.0,81,0.03,,,0.30,,2013-02-28 20:52:00,
2013-02-28 16:02:00,40.0,36.0,29.70,WSW,253,0.0,1.0,85,0.02,,,0.30,,2013-02-28 21:02:00,
2013-02-28 16:11:00,40.0,36.0,29.70,WSW,253,0.0,1.0,85,0.02,,,0.30,,2013-02-28 21:11:00,
2013-02-28 16:22:00,40.0,36.0,29.71,WSW,253,0.0,1.0,84,0.03,,,0.27,,2013-02-28 21:22:00,
2013-02-28 16:32:00,39.0,36.0,29.71,WSW,253,0.0,0.0,88,0.02,,,0.27,,2013-02-28 21:32:00,
2013-02-28 16:42:00,39.0,36.0,29.71,WSW,253,0.0,0.0,88,0.02,,,0.27,,2013-02-28 21:42:00,
2013-02-28 16:52:00,37.0,34.0,29.71,WSW,253,0.0,0.0,90,0.01,,,0.27,,2013-02-28 21:52:00,
2013-02-28 17:01:00,37.0,35.0,29.72,WSW,252,0.0,1.0,91,0.01,,,0.27,,2013-02-28 22:01:00,
2013-02-28 17:11:00,37.0,35.0,29.72,WSW,252,0.0,1.0,91,0.01,,,0.27,,2013-02-28 22:11:00,
2013-02-28 17:22:00,36.0,34.0,29.72,NNE,25,0.0,0.0,93,0.01,,,0.25,,2013-02-28 22:22:00,
2013-02-28 17:32:00,36.0,34.0,29.72,NNE,25,0.0,0.0,93,0.01,,,0.25,,2013-02-28 22:32:00,
2013-02-28 17:42:00,36.0,34.0,29.72,NNE,25,0.0,0.0,93,0.01,,,0.25,,2013-02-28 22:42:00,
2013-02-28 17:52:00,36.0,34.0,29.72,NNE,25,0.0,0.0,94,0.01,,,0.25,,2013-02-28 22:52:00,
2013-02-28 18:01:00,35.0,33.0,29.72,NNE,24,0.0,0.0,94,0.01,,,0.25,,2013-02-28 23:01:00,
2013-02-28 18:11:00,35.0,33.0,29.72,NNE,24,0.0,0.0,94,0.01,,,0.25,,2013-02-28 23:11:00,
2013-02-28 18:22:00,35.0,33.0,29.71,NNE,26,0.0,0.0,94,0.00,,,0.24,,2013-02-28 23:22:00,
2013-02-28 18:32:00,34.0,32.0,29.71,NNE,26,0.0,0.0,94,0.00,,,0.24,,2013-02-28 23:32:00,
2013-02-28 18:42:00,34.0,32.0,29.71,NNE,26,0.0,0.0,94,0.00,,,0.24,,2013-02-28 23:42:00,
2013-02-28 18:53:00,34.0,33.0,29.71,NNE,23,0.0,0.0,95,0.00,,,0.24,,2013-02-28 23:53:00,
2013-02-28 19:02:00,33.0,32.0,29.72,NNE,26,0.0,0.0,95,0.00,,,0.24,,2013-03-01 00:02:00,
2013-02-28 19:11:00,33.0,32.0,29.72,NNE,26,0.0,0.0,95,0.00,,,0.24,,2013-03-01 00:11:00,
2013-02-28 19:22:00,32.0,30.0,29.72,NNE,26,0.0,0.0,94,0.00,,,0.24,,2013-03-01 00:22:00,
2013-02-28 19:32:00,31.0,30.0,29.72,NNE,26,0.0,1.0,95,0.00,,,0.24,,2013-03-01 00:32:00,
2013-02-28 19:42:00,31.0,30.0,29.72,NNE,26,0.0,1.0,95,0.00,,,0.24,,2013-03-01 00:42:00,
2013-02-28 19:52:00,31.0,30.0,29.72,NNE,26,0.0,1.0,95,0.00,,,0.24,,2013-03-01 00:52:00,
2013-02-28 20:01:00,30.0,29.0,29.72,NNE,25,0.0,0.0,95,0.00,,,0.24,,2013-03-01 01:01:00,
2013-02-28 20:11:00,30.0,29.0,29.72,NNE,25,0.0,0.0,95,0.00,,,0.24,,2013-03-01 01:11:00,
2013-02-28 20:22:00,30.0,29.0,29.72,NNE,25,0.0,0.0,95,0.00,,,0.23,,2013-03-01 01:22:00,
2013-02-28 20:32:00,30.0,29.0,29.72,NNE,25,0.0,0.0,96,0.00,,,0.23,,2013-03-01 01:32:00,
2013-02-28 20:42:00,30.0,29.0,29.72,NNE,25,0.0,0.0,96,0.00,,,0.23,,2013-03-01 01:42:00,
2013-02-28 20:52:00,30.0,29.0,29.72,NNE,24,0.0,0.0,96,0.00,,,0.23,,2013-03-01 01:52:00,
2013-02-28 21:01:00,30.0,29.0,29.72,NNE,25,0.0,0.0,96,0.00,,,0.23,,2013-03-01 02:01:00,
2013-02-28 21:11:00,30.0,29.0,29.72,NNE,24,0.0,0.0,96,0.00,,,0.23,,2013-03-01 02:11:00,
2013-02-28 21:22:00,30.0,29.0,29.72,NNE,24,0.0,0.0,96,0.00,,,0.23,,2013-03-01 02:22:00,
2013-02-28 21:32:00,30.0,29.0,29.72,NNE,25,0.0,0.0,96,0.00,,,0.23,,2013-03-01 02:32:00,
2013-02-28 21:42:00,30.0,29.0,29.72,NNE,25,0.0,0.0,96,0.00,,,0.23,,2013-03-01 02:42:00,
2013-02-28 21:52:00,31.0,30.0,29.72,NNE,25,0.0,0.0,96,0.00,,,0.23,,2013-03-01 02:52:00,
2013-02-28 22:02:00,31.0,30.0,29.72,NNE,24,0.0,0.0,96,0.00,,,0.23,,2013-03-01 03:02:00,
2013-02-28 22:12:00,31.0,30.0,29.72,NNE,24,0.0,0.0,96,0.00,,,0.23,,2013-03-01 03:12:00,
2013-02-28 22:22:00,31.0,30.0,29.71,NNE,25,0.0,0.0,96,0.00,,,0.23,,2013-03-01 03:22:00,
2013-02-28 22:32:00,31.0,30.0,29.72,NNE,25,0.0,0.0,96,0.00,,,0.23,,2013-03-01 03:32:00,
2013-02-28 22:42:00,31.0,30.0,29.72,NNE,25,0.0,0.0,96,0.00,,,0.23,,2013-03-01 03:42:00,
2013-02-28 22:52:00,31.0,30.0,29.72,NNE,25,0.0,0.0,96,0.00,,,0.23,,2013-03-01 03:52:00,
2013-02-28 23:01:00,31.0,30.0,29.72,NNE,25,0.0,0.0,96,0.00,,,0.23,,2013-03-01 04:01:00,
2013-02-28 23:12:00,31.0,30.0,29.72,NNE,25,0.0,0.0,96,0.00,,,0.23,,2013-03-01 04:12:00,
2013-02-28 23:22:00,31.0,30.0,29.72,NNE,25,0.0,0.0,96,0.00,,,0.23,,2013-03-01 04:22:00,
2013-02-28 23:32:00,31.0,30.0,29.71,NNE,25,0.0,0.0,96,0.00,,,0.23,,2013-03-01 04:32:00,
2013-02-28 23:42:00,31.0,30.0,29.71,NNE,25,0.0,0.0,96,0.00,,,0.23,,2013-03-01 04:42:00,
2013-02-28 23:52:00,31.0,30.0,29.71,NNE,25,0.0,0.0,96,0.00,,,0.23,,2013-03-01 04:52:00,